Weather in Juan Dolio

Dominican Republic     18°26′37″N   69°24′47″W
temp.,
°C
wind,
m/s
gust,
m/s
humid.,
%
clouds,
%
prec.,
mm/h
press.,
hPa
HPBL,
m
11 may, tue
tue1123:00+24nne2490100 0.1 1018124
02:00+23ne2291100 0.1 101744
05:00+23ne2593100 0.0 1016151
08:00+25ene2585100 0.1 1018328
11:00+30e4659100 0.1 10171471
14:00+27se5879100 0.8 1016504
17:00+28ese6869100 0.1 1015855
20:00+26ese3679100 0.3 1017317
12 may, wed
wed1223:00+24ene2582100 0.1 1018139
02:00+23nne249296 0.3 101692
05:00+23nne1194100 0.8 101617
08:00+25nne238763 2.0 1018229
11:00+30se455797 0.3 10181377
14:00+32se4453100 0.8 10161508
17:00+29se4460100 0.2 1015668
20:00+25ne3576100 0.2 1017146
13 may, thu
thu1323:00+23ne38899 0.0 1018296
02:00+22nne239610 0.0 101680
05:00+22nne249713 0.0 101692
08:00+26ene35786 0.0 1017492
11:00+32ese565035 0.1 10161786
14:00+31se66516 0.1 10151406
17:00+29se565914 0.0 1014912
20:00+25se48825 0.0 1015382
14 may, fri
fri1423:00+24ese35860 0.0 1016116
02:00+22ne239315 0.0 101658
05:00+22nne22955 0.0 101639
08:00+26e347716 0.0 1017504
11:00+30se665620 0.4 10161392
14:00+32se66472 0.4 10151350
17:00+29sse66610 0.0 1014974
20:00+25se36850 0.0 1014175
15 may, sat
sat1523:00+24ese35886 0.0 1016131
02:00+23ene22934 0.1 101532
05:00+22ne239714 0.1 101559
08:00+26e34720 0.1 1016467
11:00+31se655620 0.1 10161423
14:00+31sse65524 0.1 10141509
17:00+30sse55481 0.0 10131000
20:00+24se34800 0.0 101484